Weather in Vereeniging

South Africa     26°40′38″S   27°55′58″E
temp.,
°C
wind,
m/s
gust,
m/s
humid.,
%
clouds,
%
prec.,
mm/h
press.,
hPa
HPBL,
m
2 july, sat
sat223:00+8wnw11420 0.0 102713
02:00+7n22460 0.0 102711
05:00+6nw11510 0.0 102711
08:00+8nw11510 0.0 102912
11:00+13wnw23370 0.0 1028650
14:00+16w34323 0.0 10231695
17:00+15wsw22365 0.0 102270
20:00+11nw11465 0.0 102414
3 july, sun
sun323:00+10n23460 0.0 102617
02:00+8nnw22530 0.0 102516
05:00+8nw22602 0.0 102515
08:00+9nnw22580 0.0 102724
11:00+16wnw35375 0.0 10251585
14:00+18wnw45325 0.0 10221978
17:00+16wnw22355 0.0 102147
20:00+13nw23432 0.0 102422
4 july, mon
mon423:00+10nnw11530 0.0 102518
02:00+9n11570 0.0 102511
05:00+8n11620 0.0 102510
08:00+10ne11580 0.0 102716
11:00+15nw11390 0.0 1026599
14:00+18w11320 0.0 10231677
17:00+16sw11370 0.0 102245
20:00+13ese22410 0.0 102411
5 july, tue
tue523:00+12nne33460 0.0 102515
02:00+10nne22500 0.0 102411
05:00+10nne22530 0.0 102411
08:00+11nne34510 0.0 102562
11:00+19nnw79360 0.0 10221635
14:00+21wnw78312 0.0 10192297
17:00+19wnw583632 0.0 1020226
20:00+15nw444616 0.0 102251
6 july, wed
wed623:00+12ssw711535 0.0 1025420
02:00+8ssw22500 0.0 102635
05:00+6ssw33500 0.0 102832
08:00+6s12440 0.0 103075
11:00+12ssw12220 0.0 1028486
14:00+16s11120 0.0 1024887
17:00+15s11180 0.0 102533
20:00+11s22190 0.0 102711